Vorticity
7 6 7 8 5 7 3 8 7 4 8 5 17 21 16 21 16 3 0 2 -2 -4 -2 -1 -4 -5 -11 -15 -1 7 6 14 10 2 -4 -0 11 5 1 5 3 -0 5 12 11 11 5 5 6 6 7 6 5 4 4 4 5 5 6 7 6 7 5 7 6 6 7 7 7 6 6 6 7 7 8 8 9 8 7 8 9 9 10 11 8 7 6 5 5 4 3 3 5 7 9 9 8
7 5 7 6 5 8 4 7 6 7 6 11 27 22 20 21 12 6 -4 -4 4 1 3 7 2 3 -5 -14 8 13 4 9 8 7 2 1 5 4 5 6 6 -4 -4 7 10 9 4 6 5 5 6 4 5 3 6 5 4 4 4 6 5 6 5 7 6 7 8 7 7 6 6 6 6 7 8 8 8 8 7 7 8 9 10 11 9 7 6 5 5 5 4 3 4 5 8 9 8
5 5 6 5 6 7 4 7 10 6 1 24 34 14 10 5 5 13 13 6 2 4 3 6 6 9 8 1 7 8 9 10 3 3 5 1 2 6 5 4 8 1 -4 4 9 8 5 7 5 6 5 4 6 5 6 3 2 3 3 5 4 5 5 7 8 8 8 7 7 7 6 6 6 6 8 8 8 8 7 7 9 10 10 11 9 8 5 4 5 5 5 5 5 5 6 9 9
5 5 6 6 7 5 6 7 10 5 7 35 23 1 -16 -27 1 7 11 13 -1 1 -3 -4 -1 1 9 11 6 7 10 8 5 5 8 6 3 7 6 6 8 4 1 5 4 5 7 6 5 6 7 5 5 4 2 2 3 4 5 6 5 6 6 7 9 9 8 8 8 8 7 6 5 6 6 7 8 8 8 8 9 10 10 11 9 9 7 4 5 5 5 5 5 5 4 7 8
5 5 6 6 7 4 8 6 8 5 13 33 10 6 -12 -26 14 7 3 10 2 5 1 2 3 6 10 11 12 8 2 4 10 5 6 7 7 6 5 10 10 7 4 4 1 2 8 6 7 6 6 6 4 4 2 4 4 5 6 5 6 6 7 7 8 9 8 7 7 8 8 6 5 5 6 7 8 8 8 8 9 9 9 10 9 8 8 6 5 4 4 3 4 4 4 5 7
5 6 7 5 7 5 8 5 7 6 14 30 11 17 12 -4 14 5 5 4 2 7 4 4 -2 5 5 5 9 5 6 9 11 5 3 3 8 6 4 12 11 12 7 5 6 6 10 5 6 6 5 6 3 4 3 5 4 5 6 5 7 5 6 6 6 8 8 7 7 9 7 6 5 5 6 7 8 8 8 9 9 10 9 10 8 6 7 7 7 5 4 4 3 4 5 6 6
7 6 8 6 8 6 8 6 8 10 13 30 14 4 9 9 11 2 2 -3 -1 0 -1 -2 -7 4 -3 -6 -3 -1 13 11 8 8 4 2 10 9 6 14 12 11 7 7 10 7 8 5 6 6 6 4 3 5 4 4 5 6 7 6 6 6 6 5 6 7 8 8 8 9 7 6 5 5 6 7 8 9 9 9 9 9 9 9 8 6 5 6 7 7 6 4 3 3 6 7 6
8 6 9 6 8 6 7 7 9 13 12 33 19 -18 -9 5 8 5 0 -3 -4 -7 -1 -5 -12 3 1 9 18 14 18 9 8 9 5 6 11 12 7 14 17 12 8 10 10 7 7 7 8 7 5 4 4 5 4 5 6 8 7 7 6 6 6 5 7 7 8 9 9 10 8 7 6 6 6 7 8 9 9 8 8 8 9 9 9 7 6 5 6 8 9 9 5 2 4 7 7
8 6 9 5 8 6 7 9 9 17 14 36 25 -17 0 12 6 8 -1 -5 -6 -9 6 5 -6 7 9 15 24 17 15 8 6 6 5 5 9 28 29 18 16 10 8 9 6 6 8 8 6 5 5 5 6 4 5 6 7 8 7 8 8 8 7 7 8 8 9 9 10 10 8 8 6 6 6 8 9 9 9 8 7 7 9 9 10 10 9 7 6 5 7 10 10 6 3 5 7
9 7 9 7 9 6 9 11 9 22 20 38 32 -8 3 10 4 9 3 1 -1 -9 2 12 1 5 6 -1 8 14 12 7 3 4 7 5 2 26 39 27 26 17 7 9 9 8 6 6 6 6 7 4 4 4 5 7 7 7 6 8 8 10 9 9 9 8 9 8 9 9 9 8 6 6 6 8 9 10 10 8 7 6 7 6 7 9 10 11 10 7 3 4 7 9 7 5 6
10 8 9 7 9 8 10 9 10 28 23 23 16 -10 -2 6 6 8 6 11 8 -2 -4 4 1 -2 -1 -2 14 21 9 4 8 7 5 4 -1 19 32 22 25 15 1 0 1 7 7 8 7 5 5 2 3 4 5 6 7 7 6 8 7 8 8 9 10 9 9 7 7 8 8 7 7 8 7 9 9 10 10 9 8 7 6 5 5 6 8 10 12 12 8 5 3 5 8 6 6
10 10 10 9 10 10 9 10 17 20 3 -9 -14 -11 6 5 -0 -0 3 8 11 18 16 5 0 -2 -1 5 12 12 8 7 10 6 3 -0 2 32 27 3 13 9 4 9 6 9 7 5 5 3 2 3 6 6 7 7 7 7 7 8 7 7 7 8 10 9 9 7 8 8 8 7 6 7 8 9 8 9 10 9 8 6 6 5 5 5 7 8 9 13 13 10 8 5 6 6 6
10 10 8 10 10 11 11 10 17 9 -6 -0 3 1 10 11 3 2 3 4 5 18 40 29 8 6 7 13 7 -1 5 3 3 2 3 0 8 35 16 0 24 20 14 21 15 6 -1 1 0 0 2 2 8 9 9 8 7 7 8 8 8 8 6 6 8 9 8 7 7 7 7 7 7 7 7 8 9 9 9 9 7 7 6 5 5 5 6 6 7 10 13 12 11 9 7 6 6
8 8 7 11 9 11 13 9 18 9 -1 13 15 2 2 12 8 4 3 4 1 -15 8 27 15 17 14 18 13 7 11 5 6 4 3 4 11 23 4 5 21 9 5 5 5 9 13 17 5 -2 2 1 4 7 6 7 7 8 8 7 8 7 5 6 8 8 6 6 7 8 8 8 8 8 8 7 8 9 9 8 7 7 7 6 5 6 7 6 7 9 12 12 11 10 9 7 6
9 9 8 11 11 14 14 16 25 8 -1 9 10 5 -0 5 -1 -0 5 3 12 -3 0 18 12 14 10 10 9 8 15 9 6 5 5 4 3 6 -4 7 16 -3 -4 2 7 18 20 14 5 -3 -5 -0 2 4 6 6 7 8 8 8 7 6 6 7 5 3 3 5 6 8 9 8 8 7 8 9 9 10 9 8 7 8 7 7 5 5 7 6 7 7 11 13 12 11 9 9 7
8 9 8 10 11 15 15 17 26 13 5 10 8 6 0 10 -1 -5 11 -3 -2 11 19 20 9 12 6 6 10 9 16 12 7 4 4 1 0 8 -1 3 9 -18 -19 8 14 17 18 4 7 10 4 8 8 6 8 8 9 8 8 8 7 7 8 7 4 3 3 4 5 7 8 9 9 7 8 9 11 10 9 8 7 8 7 8 6 4 4 5 6 6 10 12 12 11 9 9 8
6 8 7 11 12 12 16 12 21 18 0 3 12 8 -2 10 -0 -12 12 2 -15 -1 15 10 2 13 10 8 9 4 8 10 12 8 5 4 -2 7 8 6 3 -29 -39 -1 19 25 23 -0 0 15 13 11 8 6 7 9 9 8 8 7 8 7 7 7 6 6 4 5 6 7 8 9 10 10 8 8 10 10 9 8 6 7 6 6 6 5 6 7 8 8 10 12 11 10 9 9 8
5 8 8 11 15 12 17 16 17 10 -9 0 13 6 3 10 8 -2 3 -0 2 21 30 16 3 10 12 9 7 4 6 9 13 10 7 10 4 7 10 9 11 -7 -28 -9 14 12 -1 -8 5 15 9 8 7 8 9 8 8 6 8 8 8 7 7 8 7 6 5 6 6 7 9 10 11 11 10 9 9 10 8 8 6 5 4 4 5 6 8 8 9 9 9 11 11 11 10 9 8
5 6 8 8 16 11 17 25 14 -0 -7 6 8 1 3 4 13 19 17 10 15 32 27 13 9 10 8 6 6 7 10 9 8 3 2 5 5 7 9 14 18 12 1 4 11 5 -0 7 14 13 9 11 10 10 10 8 8 8 8 8 7 6 6 7 7 7 6 6 6 7 9 10 10 10 11 9 8 8 6 7 7 7 5 5 6 8 10 10 9 8 9 9 10 11 11 9 8
7 6 9 11 16 8 14 18 1 -5 -4 2 1 1 4 1 7 10 12 9 1 13 14 7 10 10 8 7 4 -0 0 5 3 -1 3 1 -6 -0 8 12 6 11 28 29 19 11 11 10 4 6 10 11 12 12 11 9 9 8 7 7 7 6 6 6 7 7 6 6 5 5 10 11 11 11 11 10 8 7 6 8 10 10 9 7 8 9 10 9 9 8 8 8 8 10 10 8 6
9 8 9 10 10 6 15 2 -15 -6 -3 5 7 8 17 12 10 0 -6 -1 -3 8 15 10 9 7 8 10 7 3 1 2 4 4 6 2 -0 6 5 4 11 36 53 35 17 3 -2 3 4 7 6 6 10 9 8 7 7 7 7 7 6 7 7 7 6 6 6 5 5 7 9 9 10 11 12 12 10 10 10 11 12 12 10 9 9 9 8 7 7 7 7 6 5 5 6 6 6
7 8 7 7 5 6 14 -6 -20 -13 -15 6 7 3 22 18 16 11 -3 -2 6 14 13 9 10 11 9 7 12 18 18 12 10 11 11 7 7 7 4 18 30 30 25 15 9 -4 -8 6 8 8 9 10 9 7 7 6 6 7 6 6 7 8 7 7 7 6 6 3 6 10 9 7 10 10 11 14 13 14 14 13 12 10 8 7 8 10 11 9 6 5 5 4 3 3 3 5 5
5 6 7 7 6 5 10 0 -3 -1 -3 13 2 -5 18 21 23 22 7 0 7 16 11 5 5 9 9 9 13 14 19 25 20 12 11 10 9 7 8 21 12 -9 4 24 18 -4 -10 2 5 9 11 11 11 10 9 6 7 7 6 8 7 8 8 10 13 10 5 2 8 11 8 8 12 13 11 13 12 9 8 8 8 7 9 10 9 9 9 8 8 6 4 3 4 5 5 6 6
3 4 5 5 7 3 5 5 1 4 13 22 13 12 17 12 16 18 15 8 5 11 9 5 4 7 8 8 3 -13 -8 14 20 12 8 6 8 12 15 17 2 -2 21 25 14 1 -4 3 5 7 6 8 11 9 9 7 8 8 7 8 7 8 9 10 12 10 6 6 9 9 10 9 9 13 11 10 10 6 6 7 7 7 10 13 11 10 11 11 10 8 6 7 8 8 8 8 8
3 4 5 5 9 5 3 1 -2 3 12 14 11 15 12 8 11 11 10 3 0 7 11 14 13 9 6 6 3 -8 -3 8 10 14 13 9 10 12 17 8 -14 4 28 16 13 11 3 6 5 6 7 8 11 10 11 10 9 9 8 8 8 8 8 8 8 8 10 9 7 6 13 15 9 10 12 11 11 11 8 4 6 7 7 9 9 10 13 13 10 8 8 9 9 9 8 8 8
4 5 5 7 10 8 6 -1 -0 6 7 8 8 12 14 11 10 11 11 4 5 9 7 10 11 12 11 8 7 7 10 4 1 12 12 10 9 7 15 3 -18 -2 8 -2 13 18 4 3 2 4 6 7 11 10 10 11 11 11 10 11 11 10 9 10 10 10 10 8 8 8 12 13 9 7 8 9 11 11 7 3 7 8 5 5 7 5 4 3 5 7 7 6 7 7 7 7 6
7 9 8 9 8 6 5 1 3 9 7 6 7 10 9 8 9 10 10 3 4 7 5 9 12 14 15 13 12 12 12 8 9 9 6 8 8 9 12 14 17 10 -11 -13 11 19 7 2 3 4 4 6 10 9 11 13 14 12 11 11 10 11 11 12 12 11 10 10 12 11 10 10 10 11 11 12 13 13 9 7 11 10 7 7 7 6 5 4 4 5 7 6 6 5 6 9 10
8 10 9 11 13 10 7 5 7 10 10 7 5 7 6 9 11 10 15 13 7 8 9 8 7 9 10 11 12 14 14 10 9 7 9 11 11 13 7 16 26 -10 -28 -0 13 9 6 3 4 3 3 7 8 8 9 9 14 16 13 10 7 8 10 11 12 11 12 12 12 12 10 10 12 12 12 10 8 12 15 10 8 11 13 12 8 7 6 6 5 4 4 6 5 5 7 11 15
12 9 8 12 15 11 8 8 8 7 6 7 8 7 8 8 7 9 11 9 5 6 6 1 4 12 10 9 10 15 20 15 10 10 12 11 13 14 6 21 17 -33 -31 11 15 10 9 4 3 3 5 9 10 9 7 4 7 10 11 11 9 7 6 6 6 8 9 9 12 13 10 11 14 13 12 11 7 9 13 8 4 8 9 6 6 8 7 4 4 4 4 5 5 5 5 5 7
17 14 11 11 13 13 13 11 11 11 6 7 9 6 6 6 9 12 6 2 1 -0 0 1 8 13 7 8 10 12 16 17 17 15 12 14 17 12 13 30 9 -30 -11 15 11 10 5 3 7 7 7 8 11 10 8 7 5 5 7 7 8 7 5 4 3 6 6 6 9 11 11 12 12 11 12 14 10 8 8 4 2 5 6 4 7 10 9 7 5 4 5 5 5 6 6 2 2
15 17 12 11 19 18 14 9 8 15 12 7 9 6 7 10 11 6 3 6 2 3 9 7 13 13 6 8 9 10 10 10 15 16 15 16 19 20 20 27 8 -12 4 9 4 8 3 3 7 6 8 9 14 13 9 9 8 9 8 6 7 7 7 7 6 6 5 4 5 7 8 8 9 12 13 11 6 9 12 4 0 6 11 11 10 11 12 11 9 6 6 8 7 6 7 6 5
12 12 9 16 21 11 11 18 14 10 15 16 11 6 10 18 19 5 1 3 -0 8 8 0 11 13 12 15 8 7 9 11 12 11 12 10 28 37 -3 -16 1 2 6 6 3 5 1 2 7 8 9 11 15 13 9 9 7 8 8 8 9 7 8 7 6 7 7 8 7 7 6 4 11 14 13 12 7 8 11 4 4 9 11 11 9 14 15 7 7 9 7 9 8 7 8 7 7
14 8 16 24 16 1 -5 11 14 -1 9 23 15 16 21 17 14 11 7 0 -3 2 -3 -0 7 -5 -0 11 9 8 10 20 18 10 13 5 21 28 -19 -24 9 7 6 9 3 3 3 7 12 10 9 11 13 11 9 10 9 9 7 7 7 7 9 8 7 6 6 8 8 8 9 8 13 11 7 12 8 4 4 2 5 6 7 10 7 14 18 7 6 11 10 10 8 7 9 7 8
11 8 20 18 12 15 -3 -6 5 -3 5 15 18 33 27 3 -0 7 11 5 2 2 -1 8 4 -8 2 1 2 12 8 13 10 2 10 6 9 12 -2 7 14 2 5 7 3 6 10 11 10 8 8 8 8 8 9 9 10 10 9 8 7 6 7 7 10 9 7 9 10 9 9 10 13 9 7 13 11 6 4 1 5 9 9 9 7 11 15 10 8 9 11 12 10 9 10 10 10
6 4 12 7 7 22 9 0 3 -2 5 6 25 50 18 -10 1 4 5 9 8 5 0 5 4 5 15 8 8 12 0 0 3 3 9 10 11 12 12 15 7 5 9 5 6 11 12 12 9 7 8 7 7 7 8 9 10 9 9 9 8 5 4 4 5 8 9 10 14 14 10 9 11 8 7 11 10 3 0 1 5 10 9 5 6 8 8 8 8 6 10 11 10 11 11 11 9
14 8 7 -2 -4 1 -5 8 18 17 21 6 15 43 11 -15 1 1 -1 9 13 11 4 8 16 9 5 15 24 16 4 0 0 6 8 6 8 8 10 11 7 10 9 6 8 8 9 8 6 7 7 8 8 7 8 9 10 10 9 10 11 9 5 4 2 2 4 5 9 12 12 12 11 10 9 8 7 3 2 3 2 4 2 1 6 7 5 7 7 6 8 9 10 11 8 8 8
18 10 -2 -14 -1 13 -2 -1 12 6 7 1 -6 17 22 -1 -5 0 4 10 16 18 8 5 14 12 6 16 23 16 9 3 -0 3 0 -2 2 4 8 9 6 6 7 11 8 6 10 8 6 8 7 9 8 7 9 8 9 10 10 9 10 11 7 6 6 5 4 4 4 6 10 11 9 9 9 8 7 5 5 3 2 3 2 2 5 5 5 6 6 6 7 8 10 9 7 8 9
16 13 -1 -7 9 22 4 -7 7 -1 -6 9 2 5 25 7 -10 1 5 1 6 11 6 2 8 14 13 14 14 10 6 2 3 2 -1 -1 1 2 5 5 3 3 6 9 7 10 13 10 7 5 6 10 9 9 9 8 8 7 8 9 10 12 11 6 6 9 9 8 7 6 8 10 10 9 8 9 9 7 7 6 5 6 5 4 5 5 6 6 5 6 7 8 9 9 9 9 7
17 18 2 5 14 10 1 -1 8 9 -1 2 1 0 14 7 -5 3 2 -5 3 9 4 0 5 8 9 10 10 7 6 6 7 6 6 7 6 4 3 5 6 6 10 12 12 14 11 5 5 5 6 8 8 9 10 9 8 5 5 6 7 9 11 10 7 8 9 8 8 7 8 10 12 12 11 10 10 9 10 9 7 7 7 6 6 6 6 6 5 6 7 8 8 8 8 8 8
16 24 4 -2 8 -2 -5 7 10 13 6 -5 -4 -3 5 19 15 6 -0 -7 -3 5 2 -0 5 3 1 7 10 9 9 9 10 14 14 11 11 8 6 10 9 8 10 10 10 10 5 0 3 7 6 7 10 8 7 10 9 8 8 6 5 5 7 10 10 9 8 7 7 7 7 8 9 11 12 11 11 12 10 10 10 9 9 8 7 7 6 6 6 6 6 6 6 6 6 7 8
12 23 11 -9 -1 -6 -16 -1 10 14 13 6 8 -0 -3 17 15 -0 8 12 4 1 -2 -1 3 1 1 7 10 7 3 4 8 14 17 15 12 9 9 10 8 8 8 7 9 9 5 4 11 17 11 4 8 8 7 10 9 9 11 12 11 9 8 10 10 10 9 7 6 7 7 7 8 8 9 10 9 9 9 9 9 8 9 8 7 7 6 6 6 5 6 6 6 6 6 7 8
10 16 13 -4 1 7 -9 -10 -1 5 8 4 7 6 3 17 15 -0 10 20 11 6 8 7 3 3 9 15 17 10 3 6 7 9 15 13 9 10 11 9 6 5 6 11 16 14 6 7 18 22 15 6 2 5 8 5 7 9 8 12 14 12 12 12 13 11 9 9 7 5 6 7 8 8 7 9 8 8 9 8 8 8 8 8 7 7 7 7 8 7 8 7 7 7 7 7 8
11 9 11 8 9 12 -3 -7 1 2 6 7 9 15 15 17 17 10 12 14 6 5 15 15 6 7 11 11 12 9 8 8 4 4 6 5 8 12 9 6 3 2 7 10 10 10 4 11 23 11 2 10 6 1 5 3 4 7 5 8 12 12 12 10 13 14 11 11 10 6 6 6 7 8 7 7 8 8 9 8 9 9 9 9 8 8 8 8 9 9 8 8 8 8 8 8 9
10 8 8 8 10 9 -5 -7 -0 -4 3 12 10 12 13 7 4 7 14 15 7 3 7 8 9 12 10 6 7 8 9 8 7 10 12 11 9 7 7 6 2 3 6 2 7 17 11 11 20 3 -16 -4 7 2 -0 1 1 4 6 6 10 11 9 7 7 10 11 11 11 10 7 7 7 8 7 7 8 8 9 9 10 10 10 10 10 9 9 9 9 8 9 9 9 9 9 9 9
10 9 11 7 5 9 2 1 5 -3 -0 3 -6 -8 -2 1 4 8 11 10 7 4 2 4 11 12 4 3 5 2 1 2 2 9 17 19 10 8 13 10 7 8 5 3 9 13 7 3 10 15 -6 -24 -6 8 -1 -2 2 3 6 5 9 12 7 6 5 6 10 8 10 10 8 9 8 7 8 7 7 7 8 9 9 10 10 10 11 11 10 11 11 11 10 11 11 12 12 10 10
11 3 7 9 6 7 6 9 13 7 2 1 3 8 8 7 11 16 16 12 6 1 0 1 4 4 -0 -0 4 2 4 8 6 6 8 4 1 7 11 8 10 10 8 10 6 -4 1 6 4 19 14 -24 -14 13 -0 -3 4 3 8 4 5 12 8 7 9 9 12 9 8 9 8 10 9 8 9 7 8 7 7 9 9 10 10 11 11 11 12 12 12 13 12 12 12 12 12 11 11
10 4 5 10 11 11 9 10 13 10 8 6 8 16 16 8 6 11 13 12 7 3 5 6 5 8 5 2 7 11 10 8 5 8 9 3 3 7 4 5 6 4 7 6 3 2 5 9 1 10 26 1 -7 13 1 -4 5 4 11 8 2 9 10 9 11 12 13 11 9 8 8 9 9 10 10 8 10 9 9 10 9 10 10 10 12 11 12 12 11 13 12 11 12 11 12 12 11
6 5 7 10 14 17 16 14 10 5 7 9 7 8 11 8 6 11 11 12 11 7 8 11 12 16 9 -2 -1 7 9 6 3 5 8 6 6 5 0 5 4 -0 5 -0 4 12 2 8 4 -4 27 12 -27 -5 8 -2 4 3 4 7 3 7 9 11 13 11 13 12 10 10 8 9 9 10 10 9 10 10 11 11 10 11 11 10 12 11 12 13 13 14 14 14 14 12 12 11 12
11 11 9 7 9 13 17 15 9 6 5 9 11 7 8 8 7 10 12 11 9 7 7 7 7 7 6 4 5 8 10 8 5 4 6 4 4 6 4 6 7 5 8 3 6 10 3 15 4 -9 41 26 -44 -22 13 0 3 4 0 1 0 7 12 13 13 10 12 13 12 12 9 10 10 10 10 9 9 10 9 10 10 11 11 10 10 10 11 12 13 13 14 15 16 15 14 12 13
11 17 15 13 12 8 11 9 5 9 7 6 11 11 10 13 10 7 14 16 10 10 11 6 4 3 3 11 11 5 1 0 4 5 7 7 5 9 8 5 5 4 8 8 6 8 5 10 1 3 47 31 -25 -7 13 -0 6 10 7 4 -1 8 13 13 15 10 10 11 11 12 10 9 10 9 10 9 9 10 9 9 10 9 10 10 10 9 9 10 11 12 12 13 14 14 14 15 14
1 9 13 19 22 13 10 11 9 13 12 10 13 15 16 20 18 11 13 16 13 14 13 5 6 7 4 6 4 3 8 13 15 10 7 9 7 9 10 9 7 2 3 4 0 4 2 4 13 18 20 3 -6 14 11 2 12 10 8 9 6 13 15 13 15 10 8 11 10 11 10 10 11 10 11 10 8 9 9 9 9 9 10 10 10 11 10 10 10 10 11 12 12 12 12 13 14
-1 5 11 13 18 17 14 13 13 12 11 11 11 12 13 13 15 13 10 13 14 14 15 12 11 9 4 4 3 6 12 11 8 4 5 8 7 7 8 10 11 7 6 4 2 6 5 13 25 20 10 3 10 23 15 7 13 8 8 12 9 11 12 13 14 10 9 10 10 10 9 9 12 12 12 13 12 12 11 11 10 11 11 10 10 10 10 10 9 9 9 9 9 9 9 9 10
-1 0 6 6 12 21 20 15 14 11 9 9 6 3 4 4 6 6 5 9 9 5 6 5 2 -0 -2 1 5 7 8 7 6 7 8 9 10 13 14 14 15 15 14 11 11 8 2 6 7 1 9 14 10 13 10 7 15 11 6 10 11 10 12 12 12 11 9 8 8 7 5 5 6 8 9 9 11 11 10 11 11 10 11 10 9 9 9 9 8 8 7 7 8 8 8 8 8
9 1 -6 -3 10 23 21 15 14 14 12 12 11 8 9 11 10 7 7 11 11 8 8 8 6 6 8 10 13 13 11 12 13 14 13 13 13 12 13 14 15 17 18 17 16 12 5 2 -1 -2 6 7 5 10 11 13 23 21 10 7 7 9 11 9 9 10 9 7 6 3 3 6 4 4 6 7 10 12 10 9 8 8 8 8 9 9 9 9 8 9 7 6 6 6 6 7 6
25 14 -5 -8 2 11 12 10 11 15 13 10 13 15 12 12 11 9 9 12 14 12 10 10 7 9 15 17 15 15 15 15 15 14 12 9 8 7 7 7 8 12 17 18 16 15 15 11 9 9 7 2 5 11 13 12 16 25 23 8 2 8 9 7 8 9 5 5 6 3 2 4 5 6 8 8 9 10 9 8 8 9 9 8 8 9 10 10 9 9 8 7 6 5 5 5 5
29 23 7 0 1 1 3 5 7 13 14 8 9 12 10 9 10 9 7 6 9 11 8 6 5 9 17 20 16 11 10 11 10 8 6 5 6 7 8 7 8 13 17 18 16 14 14 14 12 11 8 6 6 3 5 6 6 20 25 6 0 10 9 5 8 7 4 4 5 5 3 3 5 8 9 9 7 5 7 8 7 7 7 7 7 7 8 9 10 11 10 10 9 9 8 7 7
16 14 10 9 9 7 5 1 -2 0 3 3 4 5 5 5 6 7 8 6 5 7 8 6 6 9 11 14 11 2 0 7 8 3 2 5 7 8 9 8 8 11 12 12 11 9 9 11 11 12 10 8 7 3 3 5 5 15 21 6 -3 4 7 9 12 9 5 4 4 4 5 4 4 5 6 8 9 6 4 5 6 3 2 4 5 5 5 4 5 7 8 8 9 9 10 10 9
-1 1 4 3 0 4 8 7 8 8 4 3 4 3 2 3 3 4 10 11 9 10 11 5 1 0 4 10 4 -7 -0 12 4 -5 -0 7 9 8 9 10 9 8 8 6 5 5 6 8 9 11 10 9 8 7 6 6 6 10 13 6 -1 5 13 12 6 3 5 7 7 5 5 5 4 4 4 5 8 10 8 5 4 2 1 3 3 4 3 3 3 2 2 2 3 4 4 5 5
Height
5834 5834 5835 5835 5836 5836 5837 5838 5838 5839 5840 5841 5845 5848 5850 5850 5851 5852 5850 5852 5852 5849 5848 5847 5847 5844 5844 5850 5853 5853 5854 5855 5853 5851 5851 5852 5853 5852 5850 5851 5853 5853 5852 5853 5852 5852 5851 5851 5852 5852 5852 5852 5853 5853 5853 5853 5853 5853 5853 5854 5853 5853 5853 5852 5852 5852 5852 5852 5852 5851 5851 5850 5850 5850 5850 5850 5850 5849 5849 5849 5849 5848 5848 5849 5849 5850 5851 5852 5852 5853 5853 5853 5854 5854 5855 5854 5854
5831 5831 5832 5832 5833 5833 5834 5835 5836 5837 5838 5840 5844 5846 5848 5849 5850 5850 5847 5847 5845 5843 5843 5844 5844 5842 5841 5846 5851 5852 5853 5852 5852 5851 5850 5851 5851 5849 5848 5848 5849 5850 5850 5850 5849 5849 5848 5849 5849 5850 5850 5850 5850 5850 5850 5850 5851 5851 5851 5851 5851 5851 5850 5850 5850 5850 5850 5850 5850 5850 5849 5849 5849 5849 5848 5848 5848 5848 5848 5847 5847 5847 5847 5847 5848 5849 5850 5851 5851 5852 5852 5853 5853 5854 5854 5854 5854
5828 5828 5829 5829 5830 5831 5832 5833 5834 5834 5836 5840 5843 5844 5845 5846 5847 5847 5845 5842 5840 5839 5839 5840 5840 5840 5842 5845 5847 5849 5851 5851 5850 5850 5850 5849 5849 5847 5846 5846 5846 5847 5847 5846 5846 5846 5846 5847 5847 5847 5848 5848 5848 5848 5848 5848 5849 5849 5849 5849 5849 5849 5848 5848 5848 5848 5848 5848 5848 5848 5848 5848 5847 5847 5847 5847 5847 5847 5846 5846 5846 5846 5846 5846 5847 5848 5849 5849 5850 5851 5851 5852 5852 5853 5853 5854 5853
5825 5825 5826 5827 5828 5828 5829 5830 5831 5832 5834 5839 5841 5840 5840 5841 5842 5841 5841 5840 5838 5838 5837 5837 5836 5837 5842 5844 5843 5844 5848 5849 5849 5848 5848 5848 5847 5845 5844 5844 5844 5844 5844 5844 5843 5843 5844 5844 5845 5845 5845 5845 5846 5846 5846 5846 5847 5847 5847 5847 5847 5847 5846 5846 5846 5846 5846 5846 5847 5847 5846 5846 5846 5845 5845 5845 5845 5845 5845 5844 5844 5844 5845 5845 5846 5847 5847 5848 5849 5850 5850 5851 5851 5852 5852 5853 5853
5822 5822 5823 5824 5824 5825 5826 5827 5828 5829 5832 5837 5838 5836 5835 5837 5839 5838 5838 5837 5836 5836 5835 5835 5835 5836 5839 5841 5840 5841 5844 5846 5846 5845 5845 5846 5845 5843 5843 5842 5842 5841 5841 5840 5840 5840 5841 5842 5842 5843 5843 5843 5843 5844 5844 5844 5845 5845 5845 5845 5845 5845 5845 5845 5845 5845 5844 5845 5845 5845 5844 5844 5844 5844 5843 5843 5843 5843 5843 5843 5843 5843 5843 5844 5845 5845 5846 5847 5848 5848 5849 5849 5850 5851 5851 5852 5852
5819 5819 5820 5821 5821 5823 5823 5824 5825 5826 5830 5834 5835 5834 5832 5833 5834 5835 5835 5835 5834 5834 5834 5832 5832 5834 5836 5837 5839 5840 5842 5842 5843 5844 5843 5844 5843 5841 5839 5839 5839 5838 5838 5838 5837 5838 5838 5839 5840 5840 5841 5841 5841 5842 5842 5842 5843 5843 5843 5843 5843 5843 5843 5843 5843 5843 5843 5843 5843 5842 5842 5842 5842 5842 5842 5841 5841 5841 5841 5841 5841 5842 5842 5842 5843 5844 5845 5846 5846 5847 5847 5848 5849 5850 5850 5851 5851
5816 5817 5817 5818 5819 5820 5821 5821 5822 5824 5828 5830 5831 5831 5831 5831 5832 5832 5833 5833 5831 5831 5831 5829 5828 5830 5832 5835 5837 5838 5839 5840 5842 5843 5843 5842 5840 5837 5835 5835 5835 5836 5836 5836 5836 5836 5836 5837 5838 5838 5839 5839 5839 5840 5840 5840 5841 5841 5841 5841 5841 5841 5841 5840 5840 5840 5840 5840 5840 5840 5840 5840 5840 5840 5840 5840 5840 5840 5840 5840 5840 5840 5840 5841 5842 5843 5843 5844 5845 5845 5846 5847 5848 5848 5849 5850 5850
5814 5814 5815 5816 5816 5817 5818 5819 5820 5822 5825 5828 5828 5827 5829 5831 5832 5831 5830 5830 5828 5828 5827 5825 5827 5829 5830 5833 5835 5835 5836 5838 5840 5841 5842 5840 5836 5832 5831 5831 5832 5833 5834 5835 5835 5835 5835 5835 5836 5836 5836 5836 5837 5837 5838 5839 5839 5839 5839 5839 5839 5839 5839 5838 5838 5838 5838 5838 5838 5838 5838 5838 5838 5838 5838 5838 5838 5838 5838 5838 5838 5839 5839 5840 5840 5841 5842 5843 5843 5844 5844 5845 5846 5847 5848 5848 5849
5811 5812 5813 5813 5813 5814 5815 5817 5818 5820 5823 5826 5827 5826 5828 5829 5828 5827 5826 5826 5826 5826 5824 5822 5827 5828 5828 5831 5833 5833 5835 5836 5837 5838 5838 5837 5836 5833 5829 5827 5827 5829 5832 5833 5833 5833 5833 5834 5834 5834 5834 5834 5834 5835 5836 5837 5837 5837 5837 5837 5837 5837 5837 5836 5836 5836 5836 5836 5836 5836 5836 5836 5836 5836 5836 5836 5836 5836 5836 5837 5837 5837 5838 5839 5839 5840 5841 5841 5842 5842 5843 5843 5844 5845 5846 5847 5847
5809 5809 5810 5811 5811 5812 5813 5815 5816 5818 5820 5823 5827 5827 5826 5824 5822 5823 5824 5825 5824 5824 5822 5820 5824 5825 5826 5830 5831 5832 5833 5833 5835 5835 5835 5834 5835 5834 5831 5827 5826 5826 5829 5830 5830 5830 5830 5831 5831 5831 5831 5832 5833 5833 5834 5835 5835 5835 5835 5836 5836 5835 5835 5834 5834 5834 5834 5834 5834 5834 5834 5834 5834 5835 5835 5835 5835 5835 5835 5835 5836 5836 5837 5837 5838 5839 5839 5840 5840 5841 5841 5841 5842 5843 5845 5845 5845
5806 5807 5808 5808 5809 5810 5811 5812 5814 5817 5818 5820 5825 5826 5825 5822 5821 5821 5821 5821 5822 5824 5822 5819 5822 5822 5823 5827 5829 5830 5830 5830 5832 5832 5833 5832 5831 5833 5831 5829 5828 5824 5823 5824 5825 5825 5825 5827 5828 5829 5829 5830 5831 5832 5832 5833 5833 5833 5834 5834 5834 5834 5833 5832 5832 5832 5832 5832 5832 5832 5832 5832 5833 5833 5833 5833 5833 5833 5833 5833 5834 5835 5835 5836 5836 5837 5838 5839 5839 5839 5839 5839 5840 5842 5843 5843 5844
5804 5804 5805 5806 5806 5807 5808 5809 5812 5814 5814 5817 5820 5822 5821 5820 5819 5818 5818 5818 5819 5822 5821 5818 5821 5820 5820 5824 5825 5826 5827 5828 5829 5829 5830 5829 5827 5829 5829 5829 5828 5822 5817 5817 5818 5820 5822 5824 5826 5827 5828 5830 5831 5831 5831 5831 5831 5831 5832 5832 5832 5832 5831 5831 5830 5830 5830 5830 5830 5830 5831 5831 5831 5831 5832 5832 5832 5832 5832 5832 5832 5833 5834 5834 5835 5835 5836 5837 5838 5838 5838 5838 5838 5840 5841 5842 5842
5802 5802 5802 5803 5804 5805 5805 5807 5809 5810 5811 5813 5815 5817 5818 5817 5816 5814 5814 5815 5817 5819 5817 5816 5818 5818 5818 5820 5822 5823 5825 5825 5825 5826 5827 5826 5825 5826 5826 5827 5826 5821 5817 5815 5816 5817 5819 5821 5823 5826 5827 5829 5829 5829 5829 5829 5829 5829 5829 5829 5830 5830 5829 5829 5829 5828 5828 5828 5828 5829 5829 5829 5829 5830 5830 5830 5830 5830 5830 5830 5830 5831 5832 5833 5833 5834 5834 5835 5836 5836 5836 5836 5837 5838 5839 5840 5841
5799 5799 5800 5801 5802 5802 5803 5805 5807 5807 5808 5811 5813 5815 5815 5814 5812 5810 5810 5811 5814 5816 5813 5813 5817 5817 5817 5818 5819 5821 5822 5823 5822 5823 5825 5825 5824 5824 5825 5826 5825 5822 5819 5818 5818 5818 5818 5818 5821 5824 5825 5826 5827 5827 5827 5827 5827 5827 5827 5827 5827 5828 5827 5827 5827 5826 5826 5826 5827 5827 5827 5827 5827 5828 5828 5828 5828 5828 5828 5828 5828 5829 5830 5831 5832 5833 5833 5833 5834 5834 5835 5835 5836 5836 5837 5839 5839
5796 5797 5797 5798 5799 5800 5802 5804 5805 5806 5807 5809 5811 5811 5812 5811 5809 5807 5807 5807 5810 5813 5811 5811 5815 5815 5814 5815 5816 5818 5820 5820 5820 5822 5824 5824 5822 5822 5823 5823 5823 5821 5819 5819 5819 5819 5820 5818 5818 5820 5821 5823 5824 5825 5825 5825 5825 5825 5825 5825 5825 5825 5825 5825 5824 5824 5824 5824 5824 5825 5824 5825 5825 5825 5826 5826 5826 5826 5826 5827 5827 5827 5828 5829 5830 5831 5831 5831 5832 5832 5833 5834 5834 5835 5836 5837 5838
5794 5794 5794 5795 5797 5799 5800 5802 5803 5805 5806 5808 5808 5807 5807 5806 5806 5804 5802 5803 5807 5812 5809 5808 5811 5811 5810 5813 5814 5815 5817 5817 5818 5819 5820 5821 5820 5820 5820 5820 5820 5818 5817 5818 5817 5817 5819 5818 5817 5817 5819 5820 5821 5822 5823 5823 5823 5823 5823 5823 5823 5823 5823 5823 5822 5822 5822 5822 5822 5822 5822 5822 5823 5823 5823 5824 5824 5825 5825 5825 5825 5826 5826 5827 5828 5829 5829 5830 5830 5830 5831 5832 5833 5834 5834 5835 5836
5791 5792 5792 5794 5795 5797 5799 5800 5802 5804 5805 5805 5805 5804 5803 5801 5801 5800 5800 5801 5807 5811 5807 5804 5807 5808 5808 5809 5811 5812 5813 5814 5815 5816 5816 5817 5817 5817 5818 5818 5818 5817 5816 5816 5816 5815 5816 5817 5817 5817 5818 5819 5819 5820 5821 5821 5821 5821 5821 5821 5821 5821 5820 5820 5820 5820 5820 5820 5820 5820 5820 5820 5820 5821 5821 5822 5822 5823 5823 5824 5824 5824 5825 5826 5826 5827 5827 5828 5828 5828 5829 5831 5831 5832 5833 5833 5834
5789 5790 5791 5792 5794 5796 5797 5799 5800 5802 5802 5802 5802 5801 5800 5800 5799 5799 5802 5802 5804 5807 5803 5802 5804 5805 5806 5806 5808 5808 5810 5811 5812 5814 5813 5814 5814 5815 5816 5817 5817 5816 5815 5815 5815 5814 5815 5815 5815 5816 5816 5817 5818 5818 5819 5819 5819 5819 5819 5819 5819 5819 5818 5818 5818 5818 5818 5818 5818 5818 5818 5818 5818 5819 5819 5820 5820 5821 5821 5822 5822 5823 5823 5824 5824 5825 5825 5826 5826 5826 5827 5829 5830 5831 5831 5831 5832
5788 5788 5789 5791 5793 5794 5796 5798 5797 5798 5798 5798 5798 5798 5798 5799 5800 5800 5803 5800 5802 5804 5800 5800 5802 5802 5804 5805 5806 5806 5807 5809 5811 5812 5811 5812 5813 5814 5815 5815 5814 5814 5813 5813 5812 5813 5813 5813 5813 5814 5814 5815 5815 5816 5817 5817 5817 5817 5817 5817 5817 5816 5816 5816 5816 5816 5815 5815 5815 5815 5815 5816 5816 5817 5818 5818 5818 5819 5820 5820 5821 5821 5821 5822 5822 5823 5823 5824 5824 5825 5825 5826 5827 5828 5829 5829 5830
5786 5786 5788 5790 5792 5791 5793 5795 5794 5793 5793 5794 5794 5795 5795 5796 5799 5800 5800 5799 5801 5802 5798 5798 5800 5799 5801 5803 5804 5804 5805 5806 5808 5809 5808 5809 5811 5811 5811 5811 5811 5811 5811 5809 5808 5810 5811 5811 5811 5812 5812 5813 5813 5814 5815 5815 5815 5815 5815 5815 5815 5814 5814 5814 5814 5813 5813 5812 5812 5813 5813 5814 5815 5816 5816 5816 5817 5817 5818 5818 5819 5819 5820 5820 5821 5821 5822 5822 5822 5823 5824 5824 5825 5826 5826 5827 5828
5785 5785 5787 5788 5788 5788 5790 5789 5788 5787 5788 5790 5793 5795 5794 5793 5797 5797 5797 5800 5800 5799 5796 5796 5798 5799 5800 5800 5801 5802 5803 5804 5805 5806 5806 5807 5808 5808 5808 5808 5809 5809 5811 5807 5804 5805 5807 5808 5810 5810 5811 5811 5812 5812 5813 5813 5813 5813 5813 5812 5813 5812 5812 5811 5811 5811 5810 5810 5810 5811 5812 5813 5814 5814 5814 5815 5815 5815 5816 5816 5817 5818 5818 5818 5819 5819 5820 5820 5821 5821 5822 5822 5823 5823 5824 5825 5825
5782 5783 5785 5786 5786 5786 5788 5786 5784 5784 5785 5787 5791 5794 5793 5793 5795 5794 5795 5797 5795 5796 5795 5795 5797 5798 5798 5797 5798 5800 5801 5802 5802 5803 5803 5804 5805 5805 5805 5806 5807 5808 5811 5807 5799 5800 5803 5805 5808 5809 5809 5810 5810 5811 5811 5811 5811 5811 5811 5810 5810 5810 5809 5809 5809 5808 5808 5808 5809 5809 5810 5810 5812 5813 5813 5813 5813 5814 5814 5815 5815 5816 5816 5817 5817 5818 5818 5818 5819 5819 5820 5820 5821 5821 5822 5822 5823
5780 5781 5783 5783 5784 5784 5785 5786 5785 5784 5785 5788 5791 5792 5792 5792 5793 5792 5794 5793 5790 5794 5795 5794 5795 5794 5795 5795 5797 5798 5798 5799 5799 5799 5799 5800 5801 5801 5802 5803 5804 5806 5808 5804 5795 5795 5799 5802 5805 5807 5808 5808 5808 5809 5809 5809 5809 5809 5808 5808 5807 5807 5807 5807 5806 5806 5806 5806 5806 5807 5808 5808 5809 5810 5811 5811 5811 5812 5812 5813 5813 5814 5815 5815 5816 5816 5816 5817 5817 5818 5818 5818 5819 5819 5820 5820 5820
5778 5779 5781 5781 5782 5782 5782 5783 5783 5782 5785 5788 5790 5791 5791 5790 5790 5791 5794 5789 5787 5791 5792 5793 5793 5791 5792 5792 5795 5796 5795 5795 5795 5795 5794 5795 5796 5798 5800 5800 5802 5803 5804 5800 5793 5792 5797 5800 5803 5805 5806 5806 5806 5806 5806 5806 5806 5806 5806 5806 5805 5804 5805 5804 5803 5803 5804 5803 5804 5805 5806 5806 5807 5808 5809 5809 5810 5810 5811 5812 5812 5813 5813 5814 5814 5815 5815 5815 5815 5816 5816 5817 5817 5817 5818 5818 5818
5776 5777 5778 5779 5780 5780 5780 5781 5781 5781 5783 5785 5787 5788 5788 5789 5788 5790 5790 5785 5785 5787 5789 5792 5791 5789 5790 5790 5792 5793 5792 5793 5793 5793 5792 5793 5794 5795 5797 5798 5800 5802 5802 5799 5793 5793 5796 5798 5801 5802 5803 5804 5804 5804 5804 5804 5803 5803 5804 5803 5803 5803 5803 5802 5801 5801 5802 5801 5801 5802 5803 5804 5806 5806 5806 5807 5808 5809 5810 5811 5811 5811 5812 5812 5813 5814 5814 5814 5814 5814 5815 5815 5815 5815 5815 5816 5816
5774 5774 5775 5776 5777 5778 5778 5778 5778 5779 5781 5782 5784 5785 5786 5787 5786 5788 5787 5782 5782 5784 5786 5789 5789 5788 5787 5788 5790 5791 5791 5791 5792 5793 5792 5792 5793 5794 5796 5798 5800 5800 5800 5798 5794 5793 5796 5797 5799 5800 5801 5801 5802 5802 5802 5802 5801 5801 5801 5801 5801 5801 5800 5800 5799 5799 5799 5800 5799 5800 5801 5802 5804 5805 5805 5805 5807 5808 5808 5809 5809 5810 5810 5811 5812 5813 5813 5813 5813 5813 5813 5813 5813 5813 5813 5813 5814
5771 5771 5772 5774 5774 5775 5776 5776 5777 5778 5779 5780 5781 5783 5783 5783 5784 5786 5784 5780 5781 5782 5783 5786 5788 5788 5786 5787 5788 5790 5790 5790 5791 5791 5790 5791 5791 5793 5795 5797 5798 5798 5797 5797 5793 5792 5795 5797 5798 5799 5800 5800 5800 5800 5800 5800 5800 5799 5799 5799 5799 5798 5798 5798 5798 5797 5797 5798 5798 5798 5799 5800 5802 5803 5803 5803 5805 5806 5806 5807 5808 5808 5809 5810 5810 5811 5812 5812 5812 5812 5812 5811 5811 5810 5811 5811 5811
5768 5768 5769 5770 5771 5772 5773 5774 5775 5776 5776 5778 5779 5780 5780 5781 5783 5784 5781 5779 5780 5780 5781 5785 5787 5787 5785 5785 5787 5788 5788 5787 5788 5789 5789 5789 5790 5791 5792 5793 5795 5794 5794 5794 5791 5790 5793 5795 5797 5799 5798 5798 5798 5799 5799 5798 5798 5797 5797 5797 5796 5796 5796 5796 5796 5796 5796 5796 5797 5798 5798 5799 5800 5801 5802 5802 5803 5804 5805 5806 5806 5807 5808 5808 5809 5810 5810 5811 5810 5810 5810 5809 5809 5809 5809 5809 5809
5765 5765 5766 5768 5769 5770 5771 5772 5773 5774 5775 5775 5777 5778 5778 5780 5781 5781 5779 5777 5777 5778 5780 5784 5786 5785 5784 5784 5784 5785 5784 5784 5785 5786 5787 5788 5788 5788 5788 5790 5791 5791 5791 5790 5788 5789 5791 5793 5796 5797 5797 5797 5797 5797 5797 5797 5796 5795 5794 5794 5794 5794 5794 5794 5794 5795 5795 5795 5795 5796 5797 5797 5798 5800 5800 5801 5802 5802 5803 5804 5805 5806 5807 5807 5807 5808 5809 5808 5808 5808 5807 5807 5807 5807 5807 5807 5807
5763 5763 5764 5766 5766 5768 5770 5769 5770 5772 5772 5772 5774 5776 5777 5779 5779 5778 5776 5775 5775 5776 5777 5781 5784 5784 5783 5782 5783 5782 5781 5782 5782 5783 5784 5785 5785 5786 5787 5788 5789 5790 5790 5787 5786 5786 5788 5790 5792 5794 5795 5795 5795 5795 5795 5795 5794 5793 5792 5792 5792 5792 5792 5791 5792 5792 5793 5793 5794 5795 5795 5796 5797 5797 5798 5800 5800 5800 5801 5801 5802 5804 5805 5806 5806 5806 5805 5804 5804 5805 5805 5805 5805 5805 5806 5806 5806
5761 5761 5762 5764 5765 5766 5766 5766 5769 5770 5769 5769 5772 5774 5775 5777 5776 5774 5773 5774 5774 5774 5775 5779 5782 5782 5781 5781 5781 5780 5780 5780 5780 5781 5781 5781 5782 5784 5786 5788 5789 5789 5787 5785 5785 5785 5786 5788 5789 5790 5791 5792 5792 5793 5793 5793 5792 5791 5791 5790 5790 5790 5789 5789 5789 5790 5790 5790 5792 5792 5793 5794 5795 5795 5796 5798 5799 5799 5799 5799 5800 5801 5802 5803 5802 5801 5800 5799 5800 5801 5803 5803 5802 5803 5804 5805 5806
5758 5759 5761 5762 5763 5763 5762 5764 5768 5769 5767 5766 5770 5773 5774 5775 5773 5771 5772 5773 5772 5771 5773 5776 5779 5780 5779 5779 5779 5779 5778 5778 5778 5779 5779 5781 5781 5781 5783 5786 5787 5786 5784 5782 5783 5784 5785 5787 5788 5788 5789 5789 5789 5789 5790 5791 5790 5789 5789 5789 5789 5788 5788 5788 5787 5787 5787 5788 5789 5789 5790 5792 5792 5793 5794 5795 5796 5796 5797 5797 5797 5798 5798 5798 5798 5798 5798 5798 5799 5799 5799 5800 5800 5801 5802 5803 5805
5756 5757 5759 5761 5761 5760 5760 5762 5765 5767 5766 5764 5767 5771 5772 5773 5770 5770 5772 5772 5769 5769 5771 5773 5775 5777 5777 5777 5777 5777 5776 5775 5776 5777 5778 5779 5780 5781 5782 5782 5782 5781 5780 5781 5782 5783 5785 5786 5787 5787 5787 5787 5787 5786 5786 5787 5788 5788 5787 5787 5787 5786 5786 5787 5786 5786 5786 5786 5786 5787 5788 5789 5790 5791 5791 5792 5793 5793 5794 5794 5795 5795 5794 5794 5795 5796 5796 5798 5799 5798 5798 5798 5799 5799 5800 5802 5803
5754 5755 5757 5759 5760 5759 5758 5760 5762 5765 5766 5764 5765 5769 5771 5770 5767 5768 5771 5771 5769 5768 5769 5770 5771 5773 5774 5775 5776 5775 5774 5773 5773 5774 5776 5777 5778 5779 5779 5779 5778 5778 5778 5780 5781 5783 5784 5785 5786 5786 5786 5786 5785 5784 5784 5784 5785 5786 5786 5785 5785 5784 5784 5784 5784 5783 5784 5784 5785 5785 5786 5787 5789 5789 5789 5790 5791 5791 5792 5793 5793 5792 5792 5792 5793 5794 5795 5796 5797 5797 5797 5798 5797 5798 5799 5800 5801
5751 5753 5755 5757 5758 5758 5759 5760 5762 5764 5765 5764 5764 5767 5769 5767 5766 5767 5770 5770 5768 5766 5767 5767 5768 5769 5770 5772 5773 5774 5773 5772 5772 5772 5773 5773 5774 5775 5776 5776 5777 5778 5779 5780 5781 5782 5783 5784 5784 5785 5785 5785 5785 5784 5783 5783 5783 5783 5783 5783 5784 5784 5782 5782 5781 5781 5781 5782 5782 5783 5784 5785 5786 5787 5787 5787 5788 5790 5790 5790 5788 5787 5789 5790 5791 5792 5794 5794 5795 5795 5795 5795 5795 5796 5796 5797 5798
5749 5751 5755 5756 5757 5759 5761 5761 5762 5763 5763 5763 5763 5766 5767 5766 5766 5767 5768 5769 5766 5765 5765 5765 5765 5765 5767 5769 5770 5771 5772 5771 5771 5771 5770 5771 5772 5773 5775 5776 5776 5778 5779 5780 5780 5781 5782 5782 5783 5783 5784 5785 5784 5783 5782 5782 5781 5781 5780 5780 5781 5782 5782 5782 5781 5780 5780 5781 5781 5781 5781 5782 5783 5784 5784 5784 5785 5787 5788 5787 5785 5784 5784 5785 5787 5789 5790 5791 5792 5792 5792 5792 5793 5793 5794 5794 5795
5749 5751 5754 5756 5756 5758 5761 5760 5760 5761 5763 5762 5763 5765 5766 5766 5767 5767 5767 5766 5764 5763 5763 5763 5763 5763 5765 5767 5768 5768 5769 5770 5771 5771 5770 5771 5772 5773 5775 5776 5776 5777 5778 5778 5779 5779 5780 5781 5781 5782 5783 5783 5783 5782 5782 5781 5780 5779 5778 5777 5777 5779 5780 5780 5780 5780 5780 5780 5780 5780 5780 5780 5781 5781 5782 5782 5783 5784 5785 5785 5785 5784 5782 5782 5783 5784 5786 5787 5788 5789 5789 5789 5790 5791 5791 5792 5792
5748 5749 5753 5755 5756 5756 5759 5760 5759 5759 5761 5761 5761 5763 5765 5765 5766 5767 5766 5764 5762 5761 5761 5760 5761 5762 5763 5764 5765 5765 5766 5767 5768 5769 5770 5770 5771 5772 5774 5775 5776 5776 5776 5777 5777 5778 5778 5779 5779 5780 5781 5782 5781 5781 5780 5780 5779 5778 5777 5775 5775 5775 5777 5777 5777 5777 5778 5778 5778 5778 5779 5779 5779 5780 5780 5780 5781 5782 5783 5783 5783 5783 5782 5782 5782 5782 5783 5784 5785 5786 5786 5786 5787 5788 5789 5789 5789
5746 5747 5750 5754 5755 5754 5757 5759 5758 5756 5758 5760 5759 5761 5763 5763 5764 5765 5766 5763 5761 5759 5758 5759 5759 5760 5761 5762 5763 5764 5764 5765 5766 5767 5768 5769 5770 5771 5772 5774 5775 5775 5775 5776 5776 5776 5777 5777 5777 5777 5779 5780 5779 5779 5778 5778 5778 5777 5775 5774 5773 5773 5773 5774 5774 5774 5774 5774 5774 5774 5775 5775 5776 5776 5776 5777 5778 5778 5779 5780 5781 5781 5781 5780 5781 5781 5781 5782 5783 5783 5784 5784 5785 5785 5786 5786 5787
5745 5746 5748 5752 5754 5753 5753 5755 5756 5754 5756 5757 5758 5760 5761 5762 5763 5764 5765 5763 5760 5758 5757 5757 5757 5758 5758 5758 5760 5762 5762 5762 5763 5765 5767 5768 5769 5770 5771 5772 5773 5773 5774 5774 5775 5775 5774 5774 5774 5775 5776 5777 5777 5776 5776 5775 5776 5775 5774 5773 5772 5772 5771 5771 5771 5771 5771 5771 5771 5771 5771 5771 5772 5772 5773 5773 5774 5775 5775 5776 5777 5778 5778 5779 5779 5780 5780 5780 5780 5781 5781 5782 5782 5783 5783 5783 5784
5743 5745 5747 5749 5752 5751 5749 5750 5751 5752 5753 5754 5755 5757 5758 5761 5762 5761 5762 5762 5761 5759 5758 5758 5757 5755 5755 5755 5757 5758 5759 5759 5760 5763 5765 5765 5766 5768 5769 5770 5770 5771 5771 5772 5772 5772 5772 5771 5771 5771 5773 5774 5773 5773 5773 5773 5774 5773 5772 5771 5770 5770 5769 5769 5769 5769 5769 5769 5769 5769 5769 5769 5769 5769 5770 5770 5771 5772 5772 5773 5774 5775 5776 5776 5777 5778 5778 5778 5778 5779 5779 5779 5780 5780 5780 5781 5781
5741 5743 5745 5747 5749 5750 5747 5746 5747 5748 5750 5750 5751 5752 5755 5757 5759 5759 5760 5761 5760 5758 5758 5759 5756 5753 5753 5754 5754 5755 5756 5756 5757 5760 5761 5762 5763 5765 5766 5767 5767 5767 5768 5768 5769 5769 5769 5768 5768 5769 5770 5771 5771 5771 5771 5771 5772 5772 5771 5769 5768 5768 5767 5767 5767 5767 5767 5767 5767 5767 5767 5767 5767 5767 5767 5768 5768 5769 5770 5770 5771 5772 5773 5773 5774 5775 5775 5776 5776 5777 5777 5777 5777 5777 5778 5778 5779
5740 5741 5743 5745 5746 5747 5746 5744 5744 5745 5747 5748 5748 5749 5751 5754 5756 5757 5758 5759 5758 5756 5757 5757 5755 5752 5752 5751 5751 5752 5753 5754 5755 5756 5758 5759 5760 5762 5763 5764 5764 5764 5765 5765 5766 5767 5766 5765 5766 5767 5767 5768 5768 5769 5769 5769 5770 5770 5769 5768 5767 5766 5765 5765 5765 5765 5765 5765 5765 5765 5765 5765 5765 5766 5766 5766 5766 5767 5767 5768 5768 5769 5770 5770 5771 5771 5772 5773 5773 5774 5775 5775 5775 5775 5775 5775 5775
5738 5740 5741 5742 5742 5743 5743 5743 5743 5743 5744 5746 5746 5747 5749 5750 5753 5754 5754 5755 5754 5754 5754 5754 5753 5752 5750 5749 5749 5749 5750 5752 5752 5753 5755 5757 5758 5759 5761 5762 5762 5762 5763 5763 5763 5764 5764 5764 5765 5766 5765 5765 5766 5767 5767 5766 5767 5767 5767 5766 5765 5764 5764 5764 5763 5764 5763 5763 5763 5763 5763 5763 5763 5764 5764 5764 5764 5764 5765 5765 5766 5766 5767 5768 5769 5769 5769 5770 5771 5771 5772 5772 5772 5773 5773 5773 5772
5736 5737 5738 5738 5739 5740 5740 5741 5741 5741 5742 5743 5744 5744 5746 5747 5750 5751 5751 5751 5751 5750 5751 5751 5751 5750 5747 5747 5748 5748 5748 5749 5751 5753 5754 5755 5757 5758 5758 5759 5760 5761 5761 5761 5762 5762 5763 5763 5764 5764 5763 5763 5764 5764 5764 5764 5764 5764 5765 5764 5763 5762 5762 5762 5762 5762 5762 5761 5761 5761 5761 5761 5761 5761 5761 5761 5762 5762 5763 5763 5764 5764 5764 5765 5766 5766 5767 5768 5768 5769 5769 5769 5770 5770 5770 5770 5770
5732 5733 5734 5734 5735 5737 5738 5739 5740 5739 5739 5740 5741 5742 5742 5743 5745 5748 5748 5749 5749 5748 5748 5748 5748 5748 5745 5744 5746 5748 5747 5748 5750 5753 5754 5756 5757 5757 5756 5756 5757 5758 5759 5760 5760 5760 5761 5762 5762 5762 5761 5760 5761 5762 5762 5762 5761 5762 5762 5763 5762 5761 5760 5760 5760 5760 5759 5759 5759 5759 5759 5759 5760 5760 5759 5760 5760 5760 5761 5761 5761 5762 5762 5763 5763 5764 5764 5765 5766 5766 5766 5767 5767 5767 5767 5767 5767
5729 5729 5731 5732 5733 5734 5736 5736 5737 5737 5736 5737 5739 5741 5740 5739 5741 5744 5745 5747 5747 5746 5746 5746 5745 5744 5742 5742 5744 5746 5745 5747 5749 5750 5752 5755 5755 5755 5755 5755 5755 5756 5757 5758 5758 5757 5758 5758 5759 5759 5757 5757 5759 5760 5760 5760 5759 5759 5760 5761 5760 5759 5758 5758 5758 5758 5757 5757 5757 5757 5757 5757 5757 5758 5758 5758 5758 5758 5759 5759 5760 5760 5760 5760 5761 5761 5762 5762 5763 5763 5764 5764 5764 5764 5764 5764 5764
5726 5727 5728 5729 5731 5731 5732 5733 5733 5733 5734 5736 5737 5738 5737 5736 5738 5741 5742 5743 5743 5743 5743 5743 5742 5742 5741 5741 5742 5743 5744 5745 5747 5748 5749 5751 5752 5752 5753 5754 5754 5754 5755 5755 5754 5754 5754 5754 5755 5755 5755 5756 5757 5757 5758 5757 5756 5756 5757 5758 5759 5758 5757 5756 5756 5755 5755 5754 5754 5754 5754 5755 5755 5755 5756 5756 5756 5756 5756 5757 5757 5758 5758 5758 5759 5759 5759 5759 5760 5760 5761 5761 5761 5762 5761 5761 5761
5725 5726 5726 5727 5728 5728 5728 5729 5729 5730 5732 5734 5734 5734 5734 5734 5736 5738 5739 5740 5739 5739 5741 5740 5740 5741 5742 5741 5741 5741 5742 5743 5744 5745 5745 5746 5747 5749 5751 5751 5751 5752 5752 5752 5751 5750 5749 5749 5751 5752 5753 5753 5753 5753 5754 5753 5752 5752 5752 5754 5756 5756 5755 5755 5754 5753 5753 5752 5752 5752 5752 5752 5753 5753 5753 5753 5754 5754 5754 5754 5755 5755 5756 5756 5756 5757 5757 5757 5757 5758 5758 5758 5759 5759 5759 5759 5759
5723 5723 5724 5724 5725 5725 5726 5726 5727 5728 5729 5730 5730 5730 5731 5732 5733 5734 5735 5735 5735 5736 5737 5737 5737 5739 5740 5741 5740 5741 5742 5743 5743 5743 5742 5742 5743 5744 5746 5748 5749 5749 5749 5749 5748 5746 5746 5747 5748 5749 5750 5750 5750 5749 5749 5749 5749 5749 5749 5750 5752 5753 5753 5753 5752 5752 5751 5751 5751 5750 5750 5750 5751 5751 5751 5751 5751 5752 5752 5752 5753 5753 5753 5754 5754 5754 5755 5755 5755 5755 5756 5756 5756 5756 5757 5757 5757
5720 5721 5721 5722 5722 5722 5723 5724 5725 5725 5726 5728 5728 5728 5729 5730 5729 5730 5732 5731 5731 5733 5734 5734 5735 5736 5737 5738 5739 5740 5742 5742 5742 5741 5741 5741 5741 5741 5741 5743 5745 5746 5746 5746 5745 5744 5744 5745 5745 5746 5748 5748 5745 5743 5743 5744 5745 5745 5746 5747 5749 5750 5750 5750 5750 5750 5750 5749 5749 5749 5749 5749 5749 5749 5749 5749 5749 5750 5750 5750 5750 5751 5751 5751 5751 5752 5752 5752 5752 5753 5753 5753 5754 5754 5754 5755 5755
5718 5719 5719 5720 5720 5720 5721 5722 5722 5723 5724 5725 5726 5726 5726 5727 5727 5728 5729 5728 5729 5731 5731 5732 5732 5732 5733 5735 5737 5739 5740 5739 5739 5738 5739 5739 5739 5739 5739 5740 5740 5741 5742 5742 5742 5742 5743 5743 5741 5741 5743 5743 5741 5740 5739 5741 5742 5742 5743 5745 5746 5747 5748 5748 5749 5749 5748 5748 5747 5747 5747 5747 5748 5748 5748 5748 5748 5748 5748 5748 5749 5749 5749 5749 5749 5749 5750 5750 5750 5750 5751 5751 5751 5752 5752 5752 5753
5717 5717 5719 5718 5718 5718 5719 5719 5720 5720 5721 5722 5724 5725 5724 5725 5725 5726 5727 5727 5727 5728 5729 5729 5729 5729 5730 5732 5734 5735 5735 5735 5735 5735 5736 5736 5736 5736 5736 5737 5737 5737 5737 5737 5737 5738 5739 5738 5735 5734 5736 5736 5737 5738 5738 5739 5740 5740 5741 5742 5744 5745 5745 5746 5746 5747 5746 5746 5745 5745 5745 5745 5746 5746 5746 5747 5747 5747 5747 5747 5747 5747 5747 5747 5747 5747 5747 5748 5748 5748 5749 5749 5749 5750 5750 5750 5751
5715 5716 5717 5716 5716 5716 5717 5717 5718 5718 5719 5720 5722 5723 5723 5723 5723 5724 5724 5724 5724 5725 5726 5725 5726 5727 5728 5729 5730 5730 5730 5731 5731 5732 5732 5733 5733 5733 5734 5735 5735 5735 5734 5733 5732 5732 5733 5732 5730 5729 5729 5730 5732 5735 5736 5736 5737 5737 5738 5739 5741 5742 5742 5743 5744 5744 5744 5743 5743 5743 5743 5743 5744 5744 5745 5745 5745 5745 5745 5746 5746 5745 5746 5746 5746 5746 5746 5746 5746 5746 5746 5747 5747 5748 5748 5749 5749
5714 5715 5715 5714 5714 5714 5714 5715 5716 5716 5717 5718 5720 5721 5721 5720 5720 5721 5721 5721 5720 5721 5721 5721 5723 5725 5726 5726 5727 5727 5727 5727 5728 5728 5729 5730 5730 5731 5731 5732 5733 5733 5733 5732 5731 5730 5729 5730 5729 5727 5727 5728 5729 5731 5732 5733 5734 5734 5735 5736 5737 5738 5738 5739 5740 5741 5741 5741 5740 5741 5741 5741 5741 5742 5743 5743 5744 5744 5744 5744 5744 5744 5743 5743 5743 5743 5744 5744 5744 5744 5745 5745 5745 5746 5746 5747 5747
5712 5713 5714 5714 5713 5713 5713 5714 5714 5714 5715 5716 5717 5718 5718 5717 5717 5717 5718 5718 5717 5717 5716 5717 5719 5721 5722 5723 5724 5724 5724 5725 5725 5726 5726 5727 5728 5728 5728 5729 5730 5730 5730 5730 5730 5728 5728 5728 5728 5727 5726 5726 5727 5728 5729 5730 5731 5731 5731 5732 5732 5732 5733 5734 5735 5737 5738 5738 5738 5738 5739 5739 5739 5740 5741 5742 5742 5742 5742 5742 5742 5742 5742 5742 5741 5741 5741 5742 5742 5742 5742 5743 5743 5744 5744 5744 5745
5710 5710 5711 5712 5711 5711 5712 5712 5712 5712 5712 5713 5713 5714 5714 5714 5715 5716 5716 5716 5715 5714 5712 5713 5716 5717 5718 5720 5721 5721 5722 5722 5722 5723 5724 5724 5725 5725 5725 5726 5726 5727 5728 5728 5728 5727 5726 5726 5725 5725 5724 5724 5725 5725 5726 5728 5729 5729 5729 5730 5729 5729 5728 5728 5731 5733 5734 5735 5736 5736 5737 5738 5738 5738 5739 5740 5740 5740 5740 5740 5740 5740 5740 5740 5740 5740 5739 5739 5739 5740 5740 5740 5741 5741 5742 5742 5742
5707 5708 5709 5708 5708 5708 5709 5709 5709 5709 5710 5710 5710 5711 5712 5712 5713 5714 5713 5713 5713 5711 5709 5710 5713 5714 5714 5716 5718 5718 5718 5719 5719 5720 5720 5721 5721 5721 5722 5722 5723 5724 5725 5725 5725 5725 5724 5724 5723 5722 5721 5721 5722 5722 5723 5724 5726 5726 5727 5727 5727 5727 5727 5726 5729 5732 5734 5735 5735 5735 5735 5736 5736 5736 5736 5736 5736 5736 5736 5736 5736 5736 5737 5737 5737 5737 5737 5737 5737 5737 5738 5738 5738 5739 5739 5739 5740